When you browse on this site, cookies collect data to enhance your experience and personalize the content and advertising you see.
Visit our Privacy Policy to learn more. By continuing to use the site, you agree to this use of cookies and data.
  • In Hungary
  • List of Countries
  • For 7 days
  • Water Temperature
  • Satellite Maps
  • Weather Map
  • News
  • Weather Widgets
  • user-avatar
    Login

    Hourly Weather San Cristóbal

    Today, 18 January, Friday

    Time Temperature Precipitation Wind Pressure Humidity
    00:00 +20°C° 0 mm 1 mps 672 mmHg 69%
    01:00 +20°C° 0 mm 1 mps 672 mmHg 69%
    02:00 +20°C° 0 mm 1 mps 672 mmHg 69%
    03:00 +20°C° 0 mm 1 mps 672 mmHg 69%
    04:00 +19°C° 0 mm 1 mps 672 mmHg 69%
    05:00 +20°C° 0 mm 1 mps 672 mmHg 66%
    06:00 +21°C° 0 mm 1 mps 673 mmHg 63%
    07:00 +21°C° 0 mm 1 mps 673 mmHg 60%
    08:00 +23°C° 0 mm 1 mps 673 mmHg 56%
    09:00 +26°C° 0 mm 2 mps 674 mmHg 52%
    10:00 +28°C° 0 mm 2 mps 675 mmHg 48%
    11:00 +29°C° 0 mm 2 mps 674 mmHg 45%
    12:00 +30°C° 0 mm 2 mps 674 mmHg 42%
    13:00 +31°C° 0 mm 2 mps 673 mmHg 39%
    14:00 +30°C° 0 mm 2 mps 673 mmHg 40%
    15:00 +30°C° 0 mm 1 mps 672 mmHg 41%
    16:00 +29°C° 0 mm 1 mps 672 mmHg 41%
    17:00 +27°C° 0 mm 1 mps 671 mmHg 51%
    18:00 +24°C° 0 mm 1 mps 671 mmHg 60%
    19:00 +19°C° 0 mm 0 mps 671 mmHg 70%
    20:00 +19°C° 0 mm 0 mps 671 mmHg 70%
    21:00 +21°C° 0 mm 1 mps 672 mmHg 70%
    22:00 +21°C° 0 mm 1 mps 672 mmHg 70%
    23:00 +20°C° 0 mm 1 mps 672 mmHg 68%

    Tomorrow, 19 January, Saturday

    Time Temperature Precipitation Wind Pressure Humidity
    00:00 +20°C° 0 mm 1 mps 672 mmHg 67%
    01:00 +20°C° 0 mm 1 mps 672 mmHg 66%
    02:00 +20°C° 0 mm 1 mps 672 mmHg 65%
    03:00 +20°C° 0 mm 1 mps 671 mmHg 64%
    04:00 +20°C° 0 mm 1 mps 671 mmHg 63%
    05:00 +21°C° 0 mm 1 mps 672 mmHg 62%
    06:00 +21°C° 0 mm 1 mps 672 mmHg 60%
    07:00 +22°C° 0 mm 1 mps 673 mmHg 59%
    08:00 +23°C° 0 mm 1 mps 673 mmHg 56%
    09:00 +25°C° 0 mm 1 mps 674 mmHg 54%
    10:00 +27°C° 0 mm 2 mps 675 mmHg 51%
    11:00 +28°C° 0 mm 2 mps 674 mmHg 48%
    12:00 +29°C° 0 mm 2 mps 673 mmHg 46%
    13:00 +30°C° 0 mm 2 mps 673 mmHg 43%
    14:00 +30°C° 0 mm 2 mps 672 mmHg 42%
    15:00 +30°C° 0 mm 1 mps 672 mmHg 41%
    16:00 +30°C° 0 mm 1 mps 671 mmHg 40%
    17:00 +27°C° 0 mm 1 mps 671 mmHg 48%
    18:00 +24°C° 0 mm 1 mps 671 mmHg 57%
    19:00 +22°C° 0 mm 1 mps 671 mmHg 65%
    20:00 +21°C° 0 mm 1 mps 671 mmHg 65%
    21:00 +21°C° 0 mm 1 mps 672 mmHg 65%
    22:00 +21°C° 0 mm 1 mps 672 mmHg 65%
    23:00 +20°C° 0 mm 1 mps 672 mmHg 64%

    Day after tomorrow, 20 January, Sunday

    Time Temperature Precipitation Wind Pressure Humidity
    00:00 +20°C° 0 mm 1 mps 672 mmHg 63%
    01:00 +20°C° 0 mm 1 mps 671 mmHg 62%
    02:00 +20°C° 0 mm 1 mps 671 mmHg 62%
    03:00 +20°C° 0 mm 1 mps 671 mmHg 61%
    04:00 +20°C° 0 mm 1 mps 671 mmHg 60%
    05:00 +21°C° 0 mm 1 mps 671 mmHg 60%
    06:00 +21°C° 0 mm 1 mps 672 mmHg 60%
    07:00 +22°C° 0 mm 1 mps 673 mmHg 60%
    08:00 +24°C° 0 mm 2 mps 673 mmHg 55%
    09:00 +26°C° 0 mm 2 mps 674 mmHg 50%
    10:00 +28°C° 0 mm 2 mps 675 mmHg 45%
    11:00 +29°C° 0 mm 2 mps 674 mmHg 43%
    12:00 +30°C° 0 mm 2 mps 674 mmHg 40%
    13:00 +31°C° 0 mm 2 mps 673 mmHg 38%
    14:00 +31°C° 0 mm 2 mps 672 mmHg 38%
    15:00 +31°C° 0 mm 2 mps 672 mmHg 38%
    16:00 +30°C° 0 mm 1 mps 671 mmHg 38%
    17:00 +28°C° 0 mm 1 mps 671 mmHg 46%
    18:00 +25°C° 0 mm 1 mps 671 mmHg 54%
    19:00 +22°C° 0 mm 1 mps 671 mmHg 62%
    20:00 +22°C° 0 mm 1 mps 671 mmHg 62%
    21:00 +21°C° 0 mm 1 mps 672 mmHg 62%
    22:00 +21°C° 0 mm 1 mps 672 mmHg 62%
    23:00 +21°C° 0 mm 1 mps 672 mmHg 62%

    21 January, Monday

    Time Temperature Precipitation Wind Pressure Humidity
    00:00 +21°C° 0 mm 1 mps 672 mmHg 62%
    01:00 +21°C° 0 mm 1 mps 672 mmHg 62%
    02:00 +20°C° 0 mm 1 mps 672 mmHg 63%
    03:00 +20°C° 0 mm 1 mps 672 mmHg 63%
    04:00 +20°C° 0 mm 1 mps 671 mmHg 64%
    05:00 +21°C° 0 mm 1 mps 672 mmHg 62%
    06:00 +21°C° 0 mm 1 mps 673 mmHg 61%
    07:00 +22°C° 0 mm 1 mps 673 mmHg 59%
    08:00 +24°C° 0.1 mm 1 mps 674 mmHg 56%
    09:00 +26°C° 0.1 mm 1 mps 675 mmHg 52%
    10:00 +28°C° 0.1 mm 1 mps 676 mmHg 48%
    11:00 +28°C° 0.1 mm 1 mps 675 mmHg 48%
    12:00 +29°C° 0.1 mm 1 mps 674 mmHg 48%
    13:00 +29°C° 0.1 mm 1 mps 673 mmHg 48%
    14:00 +29°C° 0 mm 1 mps 673 mmHg 47%
    15:00 +29°C° 0 mm 1 mps 672 mmHg 46%
    16:00 +29°C° 0 mm 1 mps 672 mmHg 45%
    17:00 +27°C° 0.1 mm 1 mps 672 mmHg 54%
    18:00 +23°C° 0.1 mm 0 mps 672 mmHg 63%
    19:00 +20°C° 0.1 mm 0 mps 672 mmHg 71%
    20:00 +20°C° 0.1 mm 0 mps 672 mmHg 74%
    21:00 +20°C° 0.1 mm 0 mps 673 mmHg 76%
    22:00 +19°C° 0.1 mm 0 mps 673 mmHg 79%
    23:00 +21°C° 0 mm 1 mps 673 mmHg 79%

    22 January, Tuesday

    Time Temperature Precipitation Wind Pressure Humidity
    00:00 +21°C° 0 mm 1 mps 673 mmHg 78%
    01:00 +21°C° 0 mm 1 mps 672 mmHg 78%
    02:00 +20°C° 0 mm 1 mps 672 mmHg 77%
    03:00 +20°C° 0 mm 1 mps 672 mmHg 76%
    04:00 +20°C° 0 mm 1 mps 672 mmHg 74%
    05:00 +20°C° 0 mm 1 mps 672 mmHg 72%
    06:00 +21°C° 0 mm 1 mps 673 mmHg 70%
    07:00 +21°C° 0 mm 1 mps 673 mmHg 68%
    08:00 +23°C° 0 mm 1 mps 674 mmHg 63%
    09:00 +25°C° 0 mm 2 mps 675 mmHg 57%
    10:00 +27°C° 0 mm 2 mps 675 mmHg 52%
    11:00 +28°C° 0 mm 2 mps 675 mmHg 47%
    12:00 +29°C° 0 mm 2 mps 674 mmHg 42%
    13:00 +31°C° 0 mm 2 mps 674 mmHg 38%
    14:00 +30°C° 0 mm 2 mps 673 mmHg 37%
    15:00 +30°C° 0 mm 2 mps 673 mmHg 37%
    16:00 +30°C° 0 mm 1 mps 672 mmHg 36%
    17:00 +27°C° 0 mm 1 mps 672 mmHg 45%
    18:00 +24°C° 0 mm 1 mps 672 mmHg 54%
    19:00 +19°C° 0 mm 0 mps 672 mmHg 63%
    20:00 +21°C° 0 mm 1 mps 672 mmHg 63%
    21:00 +20°C° 0 mm 1 mps 672 mmHg 63%
    22:00 +20°C° 0 mm 1 mps 673 mmHg 64%
    23:00 +20°C° 0 mm 1 mps 672 mmHg 63%

    23 January, Wednesday

    Time Temperature Precipitation Wind Pressure Humidity
    00:00 +19°C° 0 mm 1 mps 672 mmHg 61%
    01:00 +19°C° 0 mm 1 mps 672 mmHg 60%
    02:00 +19°C° 0 mm 1 mps 672 mmHg 57%
    03:00 +19°C° 0 mm 1 mps 672 mmHg 54%
    04:00 +19°C° 0 mm 1 mps 672 mmHg 50%
    05:00 +19°C° 0 mm 1 mps 672 mmHg 50%
    06:00 +20°C° 0 mm 1 mps 673 mmHg 49%
    07:00 +21°C° 0 mm 1 mps 673 mmHg 48%
    08:00 +23°C° 0 mm 2 mps 674 mmHg 46%
    09:00 +25°C° 0 mm 2 mps 675 mmHg 43%
    10:00 +27°C° 0 mm 2 mps 675 mmHg 41%
    11:00 +28°C° 0 mm 2 mps 675 mmHg 38%
    12:00 +29°C° 0 mm 2 mps 674 mmHg 35%
    13:00 +30°C° 0 mm 2 mps 673 mmHg 32%
    14:00 +30°C° 0 mm 2 mps 673 mmHg 31%
    15:00 +29°C° 0 mm 2 mps 672 mmHg 30%
    16:00 +29°C° 0 mm 1 mps 672 mmHg 30%
    17:00 +26°C° 0 mm 1 mps 671 mmHg 35%
    18:00 +24°C° 0 mm 1 mps 671 mmHg 41%
    19:00 +21°C° 0 mm 1 mps 671 mmHg 46%
    20:00 +21°C° 0 mm 1 mps 672 mmHg 46%
    21:00 +20°C° 0 mm 1 mps 672 mmHg 46%
    22:00 +20°C° 0 mm 1 mps 672 mmHg 46%
    23:00 +20°C° 0 mm 1 mps 672 mmHg 47%
    Show more